STARLINK-11142, 59957

Orbit data source: Space-Track

STARLINK-11142, 59957 is a payload satellite owned by SpaceX/Seattle (US) in LEO that was launched on Wed, 05 Jun 2024 UTC via an FALCON 9 launch vehicle from the Air Force Eastern Test Range (AFETR). Payload-class satellites include a variety of spacecraft equipped with specific instruments for various scientific and technological missions. These include communications satellites like Starlink; space stations such as the ISS; scientific satellites like the Hubble; Earth observation satellites from companies like Planet Labs, Umbra, and HawkEye 360; GPS; miniature CubeSats for education and research; and military/defense satellites.

Loading next visibility...
Identifier
59957, 2024-107N
Orbit
LEO
Country
Flag of USUS
Related business
Manufacturer
SpaceX/Seattle
Mission
Operational Commercial Communications
Bus & Motor
STARLINK V2MD, Unknown motor
Mass
960 kg wet, ~910 kg dry
Launch date (UTC)
2024-06-05 (1 year ago)
Launch vehicle
FALCON 9
Launch site
Air Force Eastern Test Range (AFETR)
Object type
Payload
Rocket body
Debris
Shape & HBR
Box + 2 Pan, 18.1 m
Radar Cross Section
36.964 m², Large (>1 m²)

Expand to show TLE details & history
Last TLE update: 17 hours ago

TLE from 17 hours ago
0 STARLINK-11142
1 59957U 24107N   25300.96107006  .00000043  00000-0  52128-5 0  9998
2 59957  53.1588 185.2569 0001070 103.9068 256.2069 15.69708468 81315
Epoch: 2025-10-27T23:03Z
TLE epoch observation values (Epoch: 2025-10-27T23:03:56.453Z)
Latitude
-0°
Longitude
162.71627°
Altitude
360.818 km
Speed
7.694 km/s
True Right ascension
12h 21m 01s
True Declination
0° 00' 00"
Sunlit
Object was in daylight at epoch
Visualization orbit readout
Latitude
Unknown
Longitude
Unknown
Altitude
Unknown
Speed
Unknown
Apparent Right ascension
Unknown
Apparent Declination
Unknown
Sunlit
N/A
Visualization observer readout
Local Sidereal Time
11:14:04
Azimuth
Unknown
Elevation
Unknown
Doppler factor
Unknown
Orbital elements
Apogee altitude
360.713 km
Perigee altitude
359.271 km
Semi-major axis
6,738.129 km
Eccentricity
0.00011
Inclination
53.1588°
RAAN
185.2569°
Arg. of periapsis
103.9068°
True anomaly
256.19499°
Mean anomaly
256.2069°
Eccentric anomaly
256.20095°
Mean motion
3.92405 °/min
Orbital period
91.74 mins
BSTAR
0.0000052128
Loading maneuver chart data...
Computing Atmospheric mass density...
Loading historical data...
Loading historical data...
Loading historical data...
Loading historical data...
Loading historical data...
Loading historical data...
Loading historical data...

Documentation

Showing up to 5 results
|